Flag for Poland Weather past 2 weeks in Gdańsk, Poland

Now
50 °F

Sunny.


Feels Like: 50 °F
Forecast: 56 / 68 °F
Wind: 2 mph from Northwest

Location: Gdansk-Rebiechowo

Current Time: Aug 29, 2014 at 7:43:14 AM

Latest Report: Aug 29, 2014 at 7:00 AM


Visibility: 10 mi

Pressure: 30.01 "Hg

Humidity: 88%

Dew point: 46 °F

Location of GdańskLocation

Historic Weather in Gdańsk — Graph

°F

Gdańsk temperature yesterday

Maximum temperature yesterday: 66 °F (at 11:30 AM)
Minimum temperature yesterday: 50 °F (at 4:30 AM)
Average temperature yesterday: 58 °F

Past Weeks' High & Low Weather Summary

 TemperatureHumidityPressure
High72 °F (Aug 15, 1:00 PM)100% (Aug 14, 6:00 AM)30.01 "Hg (Aug 14, 6:00 AM)
Low43 °F (Aug 24, 6:30 AM)37% (Aug 22, 3:00 PM)29.50 "Hg (Aug 14, 6:30 AM)
Average58 °F73%29.81 "Hg
* Reported Aug 14 6:00 AM — Aug 29 6:30 AM, Gdańsk, Weather by CustomWeather, © 2014

Note: Actual official high and low records may vary slightly from our data, if they occured in-between our weather recording intervals... More about our weather records

Advertising

Gdańsk weather history for previous 24 hours

 ConditionsComfort  
Time TempWeatherWind HumidityBarometerVisibility
6:30 AM
Aug 29
50 °FPassing clouds.3 mph88%30.01 "HgN/A
6:00 AM50 °FClear.2 mph88%30.01 "Hg10 mi
5:30 AM50 °FClear.3 mph88%30.01 "Hg10 mi
5:00 AM52 °FClear.5 mph82%30.01 "Hg10 mi
4:30 AM52 °FClear.5 mph88%30.01 "Hg10 mi
4:00 AM52 °FClear.6 mph94%30.01 "Hg10 mi
3:30 AM52 °FClear.6 mph94%30.01 "Hg10 mi
3:00 AM52 °FPassing clouds.6 mph94%30.01 "HgN/A
2:30 AM52 °FPassing clouds.6 mph94%30.01 "HgN/A
2:00 AM52 °FClear.6 mph94%30.01 "Hg10 mi
1:30 AM54 °FClear.6 mph88%30.01 "Hg10 mi
1:00 AM54 °FClear.5 mph88%30.01 "Hg10 mi
12:30 AM54 °FClear.3 mph88%30.01 "Hg10 mi
12:00 AM54 °FClear.3 mph88%30.01 "Hg10 mi
11:30 PM
Aug 28
54 °FClear.5 mph88%30.01 "Hg10 mi
11:00 PM55 °FClear.3 mph82%30.01 "Hg10 mi
10:30 PM55 °FPassing clouds.5 mph82%30.01 "HgN/A
10:00 PM57 °FClear.3 mph77%30.01 "Hg10 mi
9:30 PM57 °FClear.3 mph77%30.01 "Hg10 mi
9:00 PM57 °FClear.5 mph77%30.01 "Hg10 mi
8:30 PM59 °FSunny.6 mph72%29.98 "Hg10 mi
8:00 PM61 °FSunny.9 mph68%29.98 "Hg10 mi
7:30 PM61 °FSunny.9 mph68%29.98 "Hg10 mi
7:00 PM63 °FSunny.10 mph59%29.98 "Hg10 mi
6:30 PM63 °FSunny.15 mph56%29.98 "Hg10 mi
6:00 PM64 °FSunny.15 mph56%29.98 "Hg10 mi
5:30 PM66 °FPassing clouds.16 mph46%29.98 "HgN/A
5:00 PM64 °FSunny.12 mph56%29.98 "Hg10 mi
4:30 PM64 °FSunny.17 mph52%29.98 "Hg10 mi
4:00 PM64 °FSunny.18 mph49%29.98 "Hg10 mi
3:30 PM66 °FSunny.17 mph49%29.98 "Hg10 mi
3:00 PM66 °FSunny.15 mph46%29.98 "Hg10 mi
2:30 PM64 °FSunny.18 mph46%29.95 "Hg10 mi
1:30 PM63 °FPassing clouds.8 mph52%29.95 "HgN/A
1:00 PM61 °FSprinkles. Passing clouds.14 mph55%29.95 "HgN/A
12:30 PM66 °FPassing clouds.16 mph43%29.95 "HgN/A
12:00 PM66 °FPassing clouds.15 mph46%29.95 "HgN/A
11:30 AM66 °FPassing clouds.16 mph46%29.95 "HgN/A
11:00 AM64 °FPassing clouds.15 mph52%29.95 "HgN/A
10:30 AM63 °FPassing clouds.14 mph64%29.95 "HgN/A
10:00 AM63 °FSunny.13 mph64%29.95 "Hg10 mi
9:30 AM63 °FSunny.13 mph64%29.95 "Hg10 mi
9:00 AM59 °FPassing clouds.10 mph77%29.92 "HgN/A
8:30 AM57 °FSunny.9 mph88%29.92 "Hg10 mi
8:00 AM55 °FSunny.7 mph94%29.92 "Hg10 mi
7:30 AM54 °FPassing clouds.6 mph94%29.92 "HgN/A
7:00 AM52 °FSunny.2 mph100%29.92 "Hg10 mi
Weather by CustomWeather, © 2014

See weather overviewHow to use our weather pages